This demonstration page uses our WeatherBlox Daily Observations layout. Learn more.

39.92423, -83.80882

Hourly Observations for May 26, 2015

Temp ( °F °C ) Dew Point ( °F °C ) Humidity (%) Winds ( mph kmh ) Pressure ( in mb ) Visibility ( mi km ) Precip ( " mm )
12:56 am 00:56 Hazy 69 20.5 64 17.7 84 84 SSW 7 11 30.11 1020 6 9.65604 0 0
1:56 am 01:56 Mostly Cloudy with Mist and Fog 68 20 64 17.7 87 87 S 5 7 30.1 1019 6 9.65604 0 0
2:56 am 02:56 Mostly Cloudy with Mist and Fog 68 20 65 18.3 90 90 SSW 7 11 30.09 1019 6 9.65604 0 0
3:48 am 03:48 Mostly Cloudy with Mist and Fog 68 20 64 18 88 88 SSW 7 11 30.09 1019 6 9.65604 0 0
3:56 am 03:56 Mostly Cloudy with Mist and Fog 68 20 65 18.3 90 90 SSW 7 11 30.09 1019 6 9.65604 0 0
4:45 am 04:45 Mostly Clear with Mist and Fog 66 19 64 18 94 94 SSW 8 13 30.09 1019 6 9.65604 0 0
4:56 am 04:56 Mostly Cloudy with Mist and Fog 67 19.4 65 18.3 93 93 SSW 7 11 30.1 1019 6 9.65604 0 0
5:07 am 05:07 Mostly Cloudy with Mist and Fog 66 19 64 18 94 94 SSW 7 11 30.09 1019 6 9.65604 0 0
5:25 am 05:25 Partly Cloudy with Mist and Fog 66 19 64 18 94 94 SSW 5 7 30.09 1019 6 9.65604 0 0
5:56 am 05:56 Mostly Cloudy with Mist and Fog 65 18.3 65 18.3 100 100 SSW 3 6 30.11 1020 6 9.65604 0 0
6:15 am 06:15 Cloudy with Mist and Fog 64 18 64 18 100 100 SW 3 6 30.15 1021 6 9.65604 0 0
6:56 am 06:56 Cloudy with Mist and Fog 66 18.8 66 18.8 100 100 SSW 6 9 30.12 1020 4 6.43736 0 0
7:22 am 07:22 Mostly Cloudy with Mist and Fog 66 19 66 19 100 100 S 7 11 30.12 1020 4 6.43736 0 0
7:56 am 07:56 Mostly Cloudy with Mist and Fog 67 19.4 66 18.8 96 96 S 6 9 30.13 1020 4 6.43736 0 0
8:56 am 08:56 Hazy 70 21.1 65 18.3 84 84 S 9 15 30.13 1020 5 8.0467 0 0
9:56 am 09:56 Hazy 75 23.8 65 18.3 71 71 SSW 14 22 30.12 1020 5 8.0467 0 0
10:56 am 10:56 Hazy 78 25.5 65 18.3 64 64 S 10 17 30.1 1019 5 8.0467 0 0
11:56 am 11:56 Hazy 81 27.2 64 17.7 56 56 SSW 16 26 30.07 1018 6 9.65604 0 0
12:56 pm 12:56 Hazy 84 28.8 65 18.3 53 53 SSW 14 22 30.06 1018 5 8.0467 0 0
1:56 pm 13:56 Hazy 85 29.4 65 18.3 51 51 SSW 16 26 30.04 1017 5 8.0467 0 0
2:56 pm 14:56 Hazy 88 31.1 65 18.3 46 46 SSW 17 28 30 1016 5 8.0467 0 0
3:16 pm 15:16 Partly Cloudy with Nearby Thunderstorms 88 31 64 18 46 46 SSW 18 30 29.94 1014 5 8.0467 0 0
3:31 pm 15:31 Mostly Cloudy with Haze 86 30 68 20 55 55 S 20 31 29.94 1014 5 8.0467 0 0
3:56 pm 15:56 Hazy 85 29.4 66 18.8 53 53 S 16 26 29.98 1015 5 8.0467 0 0
4:56 pm 16:56 Hazy 81 27.2 69 20.5 67 67 S 12 19 29.99 1016 5 8.0467 0 0
5:39 pm 17:39 Partly Cloudy with Nearby Thunderstorms 81 27 68 20 66 66 SSW 18 30 29.97 1015 5 8.0467 0 0
5:43 pm 17:43 Mostly Cloudy with Nearby Thunderstorms 79 26 70 21 74 74 WSW 24 39 30 1016 2 3.21868 0.01 0.254
5:48 pm 17:48 Mostly Cloudy with Mist and Fog 73 23 70 21 89 89 SW 16 26 30.03 1017 1.25 2.011675 0.03 0.762
5:56 pm 17:56 Mostly Cloudy with Light Rain 70 21.1 69 20.5 96 96 SW 17 28 30.03 1017 2 3.21868 0.04 1.016
6:07 pm 18:07 Mostly Cloudy with Light Rain 70 21 66 19 88 88 SSW 16 26 30.03 1017 1.5 2.41401 0.01 0.254
6:18 pm 18:18 Cloudy with Light Rain 68 20 66 19 94 94 S 12 19 30 1016 2 3.21868 0.03 0.762
6:31 pm 18:31 Cloudy with Light Rain 68 20 66 19 94 94 SSW 8 13 30 1016 4 6.43736 0.03 0.762
6:56 pm 18:56 Mostly Cloudy with Mist and Fog 68 20 68 20 100 100 S 6 9 30.01 1016 5 8.0467 0.03 0.762
7:34 pm 19:34 Mostly Cloudy with Light Rain 70 21 68 20 94 94 S 8 13 30 1016 3 4.82802 0.01 0.254
7:37 pm 19:37 Mostly Cloudy with Light Rain 70 21 68 20 94 94 S 8 13 30 1016 1.5 2.41401 0.04 1.016
7:56 pm 19:56 Mostly Cloudy with Light Rain 69 20.5 68 20 97 97 S 6 9 30 1016 4 6.43736 0.06 1.524
8:56 pm 20:56 Clear with Mist and Fog 69 20.5 69 20.5 100 100 S 9 15 29.99 1016 6 9.65604 0 0.0254
9:56 pm 21:56 Clear with Mist and Fog 70 21.1 69 20.5 96 96 S 10 17 29.99 1016 6 9.65604 0 0.0254
10:26 pm 22:26 Mostly Clear with Mist and Fog 70 21 70 21 100 100 S 12 19 30 1016 6 9.65604 0 0
10:56 pm 22:56 Partly Cloudy with Mist and Fog 69 20.5 69 20.5 100 100 SSW 13 20 30.01 1016 6 9.65604 0 0
11:56 pm 23:56 Mostly Cloudy with Mist and Fog 68 20 68 20 100 100 SSW 9 15 30.01 1016 6 9.65604 0 0

Powered by AerisWeather